Hourly Data Report for February 12, 2020

All times are specified in Local Standard Time (LST). Add 1 hour to adjust for Daylight Saving Time where and when it is observed.

OTTAWA INTL A
ONTARIO
Current Station Operator: NAVCAN

45°19'00.000" N
75°40'00.000" W
114.90 m
6106001
71628
YOW

Download Data

Hourly Data (February 2020)
Hourly Data Report for February 12, 2020
TIME Temp Definition
°C
Dew Point Definition
°C
Rel Hum Definition
%
Wind Dir Definition
10's deg

Wind Spd Definition
km/h
Visibility Definition
km
Stn Press Definition
kPa
Hmdx Definition


Wind Chill Definition


Weather Definition


00:00 -1.1 -5.8 70 25 19 24.1 99.71   -6 LegendNANA
01:00 -1.4 -5.8 72 25 20 24.1 99.80   -7 Cloudy
02:00 -1.7 -5.9 73 25 21 24.1 99.88   -8 LegendNANA
03:00 -2.5 -6.7 73 25 14 24.1 99.94   -7 LegendNANA
04:00 -4.8 -8.1 78 24 10 24.1 100.06   -9 Mainly Clear
05:00 -4.4 -8.2 75 23 13 24.1 100.20   -9 LegendNANA
06:00 -5.3 -8.7 77 23 11 24.1 100.31   -10 LegendNANA
07:00 -5.5 -8.8 78 25 10 24.1 100.37   -10 Clear
08:00 -5.8 -8.9 79 22 7 24.1 100.43   -9 LegendNANA
09:00 -4.2 -9.0 70 22 11 24.1 100.50   -9 LegendNANA
10:00 -2.1 -8.1 64 22 20 24.1 100.47   -8 Mainly Clear
11:00 -0.8 -6.9 64 23 22 24.1 100.42   -7 LegendNANA
12:00 0.5 -6.8 58 22 20 24.1 100.34     LegendNANA
13:00 0.8 -7.2 55 21 22 24.1 100.22     Mainly Clear
14:00 1.5 -7.4 52 22 26 24.1 100.12     LegendNANA
15:00 1.2 -6.7 56 22 24 24.1 100.16     LegendNANA
16:00 0.3 -6.3 61 21 21 24.1 100.12     Mostly Cloudy
17:00 -0.5 -5.9 67 21 28 24.1 100.10   -7 LegendNANA
18:00 -1.0 -5.9 69 21 21 24.1 100.06   -7 LegendNANA
19:00 -0.9 -5.2 73 21 18 24.1 99.99   -6 Cloudy
20:00 -1.0 -5.0 74 20 16 24.1 99.87   -6 LegendNANA
21:00 -0.8 -5.2 72 20 16 24.1 99.79   -6 LegendNANA
22:00 -0.6 -5.2 71 23 13 24.1 99.71   -5 Cloudy
23:00 -0.9 -5.2 72 22 10 24.1 99.64   -4 LegendNANA

Notes on Data Quality.

Legend

  • E = Estimated
  • M = Missing
  • NA = Not Available*
  • [empty] = Indicates an unobserved value
Date modified: